Time,TemperatureF,DewpointF,PressureIn,WindDirection,WindDirectionDegrees,WindSpeedMPH,WindSpeedGustMPH,Humidity,HourlyPrecipIn,Conditions,Clouds,dailyrainin,SoftwareType,DateUTC
2013-07-07 00:01:00,68.0,-99.9,30.00,South,180,0.0,0.0,-999,0.00,,,0.00,,2013-07-07 05:01:00,
2013-07-07 00:11:00,68.0,-99.9,30.00,South,180,0.0,0.0,-999,0.00,,,0.00,,2013-07-07 05:11:00,
2013-07-07 00:21:00,66.0,-99.9,30.03,SE,135,0.0,0.0,-999,0.00,,,0.00,,2013-07-07 05:21:00,
2013-07-07 00:32:00,66.0,-99.9,30.03,SE,135,0.0,0.0,-999,0.00,,,0.00,,2013-07-07 05:32:00,
2013-07-07 00:41:00,66.0,-99.9,30.03,SE,135,0.0,0.0,-999,0.00,,,0.00,,2013-07-07 05:41:00,
2013-07-07 00:51:00,66.0,-99.9,30.03,SE,135,0.0,0.0,-999,0.00,,,0.00,,2013-07-07 05:51:00,
2013-07-07 01:01:00,67.0,-99.9,30.02,SSE,158,1.0,3.0,-999,0.00,,,0.00,,2013-07-07 06:01:00,
2013-07-07 01:11:00,67.0,-99.9,30.02,SSE,158,1.0,3.0,-999,0.00,,,0.00,,2013-07-07 06:11:00,
2013-07-07 01:32:00,67.0,-99.9,30.01,South,180,0.0,0.0,-999,0.00,,,0.00,,2013-07-07 06:32:00,
2013-07-07 01:43:00,67.0,-99.9,30.01,SSE,158,3.0,6.0,-999,0.00,,,0.00,,2013-07-07 06:43:00,
2013-07-07 02:02:00,67.0,-99.9,30.01,South,180,0.0,3.0,-999,0.00,,,0.00,,2013-07-07 07:02:00,
2013-07-07 02:11:00,67.0,-99.9,30.00,South,180,0.0,0.0,-999,0.00,,,0.00,,2013-07-07 07:11:00,
2013-07-07 02:34:00,66.0,-99.9,30.01,South,180,0.0,6.0,-999,0.00,,,0.00,,2013-07-07 07:34:00,
2013-07-07 02:44:00,66.0,-99.9,30.00,South,180,0.0,0.0,-999,0.00,,,0.00,,2013-07-07 07:44:00,
2013-07-07 03:03:00,65.0,-99.9,30.00,South,180,0.0,0.0,-999,0.00,,,0.00,,2013-07-07 08:03:00,
2013-07-07 03:12:00,65.0,-99.9,30.00,South,180,0.0,0.0,-999,0.00,,,0.00,,2013-07-07 08:12:00,
2013-07-07 03:34:00,65.0,-99.9,30.00,South,180,0.0,0.0,-999,0.00,,,0.00,,2013-07-07 08:34:00,
2013-07-07 03:44:00,64.0,-99.9,30.01,South,180,0.0,0.0,-999,0.00,,,0.00,,2013-07-07 08:44:00,
2013-07-07 04:02:00,63.0,-99.9,30.00,South,180,0.0,0.0,-999,0.00,,,0.00,,2013-07-07 09:02:00,
2013-07-07 04:12:00,63.0,-99.9,30.01,South,180,0.0,0.0,-999,0.00,,,0.00,,2013-07-07 09:12:00,
2013-07-07 04:34:00,63.0,-99.9,30.00,South,180,0.0,0.0,-999,0.00,,,0.00,,2013-07-07 09:34:00,
2013-07-07 04:43:00,63.0,-99.9,30.01,South,180,0.0,0.0,-999,0.00,,,0.00,,2013-07-07 09:43:00,
2013-07-07 05:03:00,63.0,-99.9,30.01,South,180,0.0,0.0,-999,0.00,,,0.00,,2013-07-07 10:03:00,
2013-07-07 05:12:00,63.0,-99.9,30.02,South,180,0.0,0.0,-999,0.00,,,0.00,,2013-07-07 10:12:00,
2013-07-07 05:32:00,64.0,-99.9,30.02,South,180,0.0,0.0,-999,0.00,,,0.00,,2013-07-07 10:32:00,
2013-07-07 05:43:00,64.0,-99.9,30.02,South,180,0.0,0.0,-999,0.00,,,0.00,,2013-07-07 10:43:00,
2013-07-07 06:02:00,66.0,-99.9,30.03,South,180,3.0,7.0,-999,0.00,,,0.00,,2013-07-07 11:02:00,
2013-07-07 06:12:00,66.0,-99.9,30.03,South,180,0.0,5.0,-999,0.00,,,0.00,,2013-07-07 11:12:00,
2013-07-07 06:34:00,66.0,-99.9,30.03,South,180,5.0,7.0,-999,0.00,,,0.00,,2013-07-07 11:34:00,
2013-07-07 06:43:00,66.0,-99.9,30.03,SSW,203,1.0,6.0,-999,0.00,,,0.00,,2013-07-07 11:43:00,
2013-07-07 07:02:00,66.0,-99.9,30.03,SSW,203,3.0,8.0,-999,0.00,,,0.00,,2013-07-07 12:02:00,
2013-07-07 07:12:00,67.0,-99.9,30.03,South,180,1.0,8.0,-999,0.00,,,0.00,,2013-07-07 12:12:00,
2013-07-07 07:34:00,67.0,-99.9,30.03,SSE,158,3.0,6.0,-999,0.00,,,0.00,,2013-07-07 12:34:00,
2013-07-07 07:43:00,68.0,-99.9,30.03,SSE,158,0.0,6.0,-999,0.00,,,0.00,,2013-07-07 12:43:00,
2013-07-07 08:03:00,69.0,-99.9,30.04,SSE,158,0.0,0.0,-999,0.00,,,0.00,,2013-07-07 13:03:00,
2013-07-07 08:12:00,70.0,-99.9,30.04,South,180,7.0,10.0,-999,0.00,,,0.00,,2013-07-07 13:12:00,
2013-07-07 08:34:00,71.0,-99.9,30.04,SW,225,3.0,9.0,-999,0.00,,,0.00,,2013-07-07 13:34:00,
2013-07-07 08:43:00,72.0,-99.9,30.04,SSW,203,6.0,7.0,-999,0.00,,,0.00,,2013-07-07 13:43:00,
2013-07-07 09:02:00,73.0,-99.9,30.03,SSW,203,7.0,10.0,-999,0.00,,,0.00,,2013-07-07 14:02:00,
2013-07-07 09:12:00,75.0,-99.9,30.03,SSW,203,6.0,13.0,-999,0.00,,,0.00,,2013-07-07 14:12:00,
2013-07-07 09:43:00,74.0,-99.9,30.03,SSW,203,8.0,12.0,-999,0.00,,,0.00,,2013-07-07 14:43:00,
2013-07-07 10:02:00,76.0,-99.9,30.03,SSW,203,8.0,12.0,-999,0.00,,,0.00,,2013-07-07 15:02:00,
2013-07-07 10:12:00,77.0,-99.9,30.03,SW,225,8.0,13.0,-999,0.00,,,0.00,,2013-07-07 15:12:00,
2013-07-07 10:34:00,77.0,-99.9,30.03,SSW,203,6.0,10.0,-999,0.00,,,0.00,,2013-07-07 15:34:00,
2013-07-07 10:43:00,77.0,-99.9,30.02,SSW,203,6.0,13.0,-999,0.00,,,0.00,,2013-07-07 15:43:00,
2013-07-07 11:02:00,78.0,-99.9,30.02,South,180,7.0,10.0,-999,0.00,,,0.00,,2013-07-07 16:02:00,
2013-07-07 11:11:00,78.0,-99.9,30.03,SW,225,7.0,12.0,-999,0.00,,,0.00,,2013-07-07 16:11:00,
2013-07-07 11:43:00,81.0,-99.9,30.03,SW,225,6.0,13.0,-999,0.00,,,0.00,,2013-07-07 16:43:00,
2013-07-07 12:02:00,80.0,-99.9,30.02,SSW,203,5.0,10.0,-999,0.00,,,0.00,,2013-07-07 17:02:00,
2013-07-07 12:12:00,80.0,-99.9,30.02,SSW,203,5.0,8.0,-999,0.00,,,0.00,,2013-07-07 17:12:00,
2013-07-07 12:43:00,85.0,-99.9,30.02,South,180,5.0,9.0,-999,0.00,,,0.00,,2013-07-07 17:43:00,
2013-07-07 13:02:00,84.0,-99.9,30.01,SW,225,7.0,12.0,-999,0.00,,,0.00,,2013-07-07 18:02:00,
2013-07-07 13:12:00,84.0,-99.9,30.01,SSW,203,8.0,12.0,-999,0.00,,,0.00,,2013-07-07 18:12:00,
2013-07-07 13:33:00,83.0,-99.9,30.01,SSW,203,5.0,10.0,-999,0.00,,,0.00,,2013-07-07 18:33:00,
2013-07-07 13:43:00,84.0,-99.9,30.01,South,180,7.0,10.0,-999,0.00,,,0.00,,2013-07-07 18:43:00,
2013-07-07 14:01:00,87.0,-99.9,30.01,South,180,6.0,10.0,-999,0.00,,,0.00,,2013-07-07 19:01:00,
2013-07-07 14:11:00,86.0,-99.9,30.01,SSW,203,7.0,10.0,-999,0.00,,,0.00,,2013-07-07 19:11:00,
2013-07-07 14:34:00,88.0,-99.9,30.01,SSW,203,6.0,14.0,-999,0.00,,,0.00,,2013-07-07 19:34:00,
2013-07-07 14:43:00,89.0,-99.9,30.01,SSW,203,5.0,12.0,-999,0.00,,,0.00,,2013-07-07 19:43:00,
2013-07-07 15:02:00,90.0,-99.9,30.01,SSW,203,7.0,12.0,-999,0.00,,,0.00,,2013-07-07 20:02:00,
2013-07-07 15:11:00,84.0,-99.9,30.01,SW,225,5.0,10.0,-999,0.00,,,0.00,,2013-07-07 20:11:00,
2013-07-07 15:34:00,88.0,-99.9,30.00,SSW,203,7.0,13.0,-999,0.00,,,0.00,,2013-07-07 20:34:00,
2013-07-07 15:42:00,88.0,-99.9,30.00,South,180,7.0,10.0,-999,0.00,,,0.00,,2013-07-07 20:42:00,
2013-07-07 16:02:00,84.0,-99.9,29.99,SSW,203,7.0,10.0,-999,0.00,,,0.00,,2013-07-07 21:02:00,
2013-07-07 16:34:00,86.0,-99.9,29.98,South,180,9.0,17.0,-999,0.00,,,0.00,,2013-07-07 21:34:00,
2013-07-07 16:44:00,86.0,-99.9,29.98,SSW,203,6.0,17.0,-999,0.00,,,0.00,,2013-07-07 21:44:00,
2013-07-07 17:11:00,92.0,-99.9,29.98,South,180,7.0,12.0,-999,0.00,,,0.00,,2013-07-07 22:11:00,
2013-07-07 17:34:00,89.0,-99.9,29.98,SSW,203,7.0,13.0,-999,0.00,,,0.00,,2013-07-07 22:34:00,
2013-07-07 17:44:00,92.0,-99.9,29.98,SSW,203,7.0,14.0,-999,0.00,,,0.00,,2013-07-07 22:44:00,
2013-07-07 18:02:00,89.0,-99.9,29.98,SSW,203,8.0,13.0,-999,0.00,,,0.00,,2013-07-07 23:02:00,
2013-07-07 18:12:00,89.0,-99.9,29.97,South,180,7.0,13.0,-999,0.00,,,0.00,,2013-07-07 23:12:00,
2013-07-07 18:33:00,88.0,-99.9,29.97,SSW,203,8.0,13.0,-999,0.00,,,0.00,,2013-07-07 23:33:00,
2013-07-07 18:43:00,89.0,-99.9,29.97,SSW,203,8.0,12.0,-999,0.00,,,0.00,,2013-07-07 23:43:00,
2013-07-07 19:02:00,89.0,-99.9,29.98,SSW,203,6.0,10.0,-999,0.00,,,0.00,,2013-07-08 00:02:00,
2013-07-07 19:12:00,88.0,-99.9,29.98,SSW,203,5.0,10.0,-999,0.00,,,0.00,,2013-07-08 00:12:00,
2013-07-07 19:33:00,86.0,-99.9,29.99,SSW,203,5.0,7.0,-999,0.00,,,0.00,,2013-07-08 00:33:00,
2013-07-07 19:43:00,83.0,-99.9,29.99,SSW,203,5.0,7.0,-999,0.00,,,0.00,,2013-07-08 00:43:00,
2013-07-07 20:11:00,78.0,-99.9,30.00,SSW,203,0.0,0.0,-999,0.00,,,0.00,,2013-07-08 01:11:00,
2013-07-07 20:32:00,77.0,-99.9,30.00,SSW,203,0.0,1.0,-999,0.00,,,0.00,,2013-07-08 01:32:00,
2013-07-07 21:03:00,76.0,-99.9,30.01,SE,135,0.0,2.0,-999,0.00,,,0.00,,2013-07-08 02:03:00,
2013-07-07 21:11:00,76.0,-99.9,30.01,SSE,158,0.0,3.0,-999,0.00,,,0.00,,2013-07-08 02:11:00,
2013-07-07 21:33:00,75.0,-99.9,30.01,SSE,158,0.0,0.0,-999,0.00,,,0.00,,2013-07-08 02:33:00,
2013-07-07 21:43:00,74.0,-99.9,30.01,South,180,3.0,6.0,-999,0.00,,,0.00,,2013-07-08 02:43:00,
2013-07-07 22:02:00,73.0,-99.9,30.02,SSW,203,5.0,7.0,-999,0.00,,,0.00,,2013-07-08 03:02:00,
2013-07-07 22:12:00,74.0,-99.9,30.02,South,180,6.0,7.0,-999,0.00,,,0.00,,2013-07-08 03:12:00,
2013-07-07 22:34:00,74.0,-99.9,30.02,South,180,5.0,6.0,-999,0.00,,,0.00,,2013-07-08 03:34:00,
2013-07-07 22:43:00,73.0,-99.9,30.02,SSW,203,5.0,6.0,-999,0.00,,,0.00,,2013-07-08 03:43:00,
2013-07-07 23:02:00,73.0,-99.9,30.02,South,180,3.0,5.0,-999,0.00,,,0.00,,2013-07-08 04:02:00,
2013-07-07 23:12:00,73.0,-99.9,30.02,SSE,158,0.0,3.0,-999,0.00,,,0.00,,2013-07-08 04:12:00,
2013-07-07 23:22:00,73.0,-99.9,30.03,SSE,158,0.0,0.0,-999,0.00,,,0.00,,2013-07-08 04:22:00,
2013-07-07 23:33:00,73.0,-99.9,30.03,SSE,158,0.0,0.0,-999,0.00,,,0.00,,2013-07-08 04:33:00,
2013-07-07 23:42:00,73.0,-99.9,30.04,South,180,2.0,5.0,-999,0.00,,,0.00,,2013-07-08 04:42:00,